This is the latest recevied weather packets stored in our database for station/object OE6ATD-13. If no packets are shown the sender has not sent any weather packets the latest 10 day(s).
| Time | Temp. | Humidity | Pressure | Rain* | Wind** | Luminosity | Snow |
|---|---|---|---|---|---|---|---|
| 1778277925 | 12.22° C | 80% | 1016.6 hPa | 0 mm | - | 0 W/m² | - |
| 1778277321 | 12.22° C | 80% | 1016.6 hPa | 0 mm | - | 0 W/m² | - |
| 1778276717 | 12.78° C | 79% | 1016.6 hPa | 0 mm | - | 0 W/m² | - |
| 1778276127 | 12.78° C | 78% | 1016.6 hPa | 0 mm | - | 0 W/m² | - |
| 1778275524 | 12.78° C | 76% | 1016.4 hPa | 0 mm | - | 0 W/m² | - |
| 1778274919 | 12.78° C | 75% | 1016.5 hPa | 0 mm | - | 0 W/m² | - |
| 1778274315 | 12.78° C | 75% | 1016.5 hPa | 0 mm | - | 0 W/m² | - |
| 1778273727 | 12.78° C | 74% | 1016.4 hPa | 0 mm | - | 0 W/m² | - |
| 1778273122 | 12.78° C | 73% | 1016.4 hPa | 0 mm | - | 0 W/m² | - |
| 1778272517 | 13.33° C | 73% | 1016.4 hPa | 0 mm | - | 0 W/m² | - |
| 1778271929 | 13.33° C | 72% | 1016.3 hPa | 0 mm | - | 0 W/m² | - |
| 1778271324 | 13.33° C | 72% | 1016.1 hPa | 0 mm | - | 0 W/m² | - |
| 1778270720 | 13.89° C | 71% | 1016.1 hPa | 0 mm | - | 0 W/m² | - |
| 1778270116 | 13.89° C | 70% | 1016.1 hPa | 0 mm | - | 0 W/m² | - |
| 1778269527 | 13.89° C | 70% | 1015.9 hPa | 0 mm | - | 0 W/m² | - |
| 1778268923 | 14.44° C | 69% | 1015.9 hPa | 0 mm | - | 0 W/m² | - |
| 1778268319 | 14.44° C | 68% | 1015.8 hPa | 0 mm | - | 0 W/m² | - |
| 1778267730 | 14.44° C | 66% | 1015.7 hPa | 0 mm | - | 0 W/m² | - |
| 1778267126 | 15° C | 65% | 1015.6 hPa | 0 mm | - | 0 W/m² | - |
| 1778266521 | 15.56° C | 63% | 1015.4 hPa | 0 mm | - | 0 W/m² | - |
| 1778265917 | 15.56° C | 62% | 1015.2 hPa | 0 mm | - | 0 W/m² | - |
| 1778265328 | 16.11° C | 61% | 1015 hPa | 0 mm | - | 0 W/m² | - |
| 1778264724 | 16.67° C | 58% | 1014.9 hPa | 0 mm | - | 0 W/m² | - |
| 1778264120 | 17.78° C | 53% | 1014.8 hPa | 0 mm | - | 0 W/m² | - |
| 1778263530 | 18.89° C | 49% | 1014.6 hPa | 0 mm | - | 4 W/m² | - |
* Rain latest hour (hover to see other rain measurements)
** Current wind speed in m/s (hover to see current wind gust speed)